{"data":{"norad_id":65106,"epoch":"2026-09-21T18:24:47.566944Z","epoch_age_seconds":55647,"freshness":"FRESH","line1":"1 65106U 25168A   26264.76721721 -.00000092  00000+0  68477-4 0  9990","line2":"2 65106  50.0050 339.5734 0007449  31.0557 329.0755 13.29326318 55536","mean_motion":13.29326318,"eccentricity":0.0007449,"inclination_deg":50.005,"raan_deg":339.5734,"arg_perigee_deg":31.0557,"mean_anomaly_deg":329.0755,"bstar":6.8477e-5,"rev_number":5553,"period_min":108.32554659465,"perigee_km":1143.69817956,"apogee_km":1154.9125632049,"semimajor_km":7527.4423713825,"source":"CELESTRAK","updated_at":"2026-09-22T09:00:30.133140Z"}}